Location: Armstrong Village
(14.3346°N, 120.9854°E)
Time: 17:45:41
(UTC+00:00)

Cosmos 1821 Rocket - Visible Passes

Search period start: 11 April 2026 00:00
Search period end: 21 April 2026 00:00
Orbit: 945 x 1002 km, 82.9° (Epoch: 11 April)

Date Brightness Start Highest point End Pass type
(mag) Time Alt. Az. Time Alt. Az. Time Alt. Az.
13 Apr 6.1 12:27:14 14° NNE 12:27:14 14° NNE 12:27:59 10° NNE visible
14 Apr 5.8 12:50:53 22° N 12:50:53 22° N 12:52:54 10° N visible
15 Apr 5.7 11:29:50 14° NE 11:29:50 14° NE 11:31:01 10° NE visible
15 Apr 5.9 13:14:22 23° NW 13:14:22 23° NW 13:17:02 10° NNW visible
16 Apr 4.7 11:53:05 35° NE 11:53:05 35° NE 11:57:05 10° NNE visible
16 Apr 6.5 13:37:36 14° WNW 13:37:36 14° WNW 13:39:52 10° NW visible
17 Apr 3.9 12:16:00 87° WNW 12:16:00 87° WNW 12:22:13 10° N visible
18 Apr 5.3 10:53:50 14° ESE 10:55:55 16° E 10:59:33 10° NE visible
18 Apr 5.0 12:38:14 28° SW 12:40:47 41° W 12:46:38 10° NNW visible
19 Apr 4.5 11:15:01 10° SSE 11:20:32 35° E 11:26:07 10° NNE visible
19 Apr 6.2 13:01:27 10° SW 13:05:43 19° W 13:10:02 10° NW visible
20 Apr 3.8 11:39:06 10° S 11:45:15 75° E 11:51:29 10° N visible
